Weather WX

World > North America > United States > Pennsylvania

Creamery, Pennsylvania Regional Weather

Lat: 40.22N, Lon: 75.42W
Wx Zone: PAZ068
Warning FLW WEATHER ALERT - (More Info. Click Here) Warning
Feedback

Creamery, PA Regional Weather

Expires:201906200500;;765892
ASUS41 KPHI 200411
RWRPHI

REGIONAL WEATHER ROUNDUP
NATIONAL WEATHER SERVICE MOUNT HOLLY NJ
1200 AM EDT THU JUN 20 2019

NOTE:  "FAIR" INDICATES FEW OR NO CLOUDS BELOW 12,000 FEET WITH NO
SIGNIFICANT WEATHER AND/OR OBSTRUCTIONS TO VISIBILITY.

 * = STATION DOES NOT REPORT PRECIPITATION (E.G. RAIN, SNOW, ETC.) 
        OR FOG.


PAZ043-044-047-054-055-060>062-066>071-200500-
EASTERN PENNSYLVANIA
  
CITY           SKY/WX    TMP DP  RH WIND       PRES   REMARKS
PHILADELPHIA   TSTM      73  71  93 VRB5      29.71S FOG              
NORTH PHILA    MOCLDY    71  66  84 N3        29.73F                  
BLUE BELL*     CLOUDY    69  68  98 E3        29.74R                  
DOYLESTOWN     FOG       69  66  90 N6        29.73F VSB 1            
QUAKERTOWN*    FOG       68  68 100 CALM      29.74  VSB 1            
PERKASIE*      FOG       66  66 100 NE8       29.75F VSB 1/2          
POTTSTOWN      FAIR      69  69 100 VRB3      29.73F                  
LANCASTER      CLOUDY    74  72  93 SE6       29.70S                  
COATESVILLE    LGT RAIN  72  70  94 VRB5      29.74S                  
WEST CHESTER   TSTM      72  70  94 E3        29.72S                  
READING        TSTM      72  72 100 N12       29.70F                  
ALLENTOWN      LGT RAIN  70  67  90 E5        29.74S                  
QN CITY/ALNTWN CLOUDY   N/A N/A N/A CALM      29.75F                  
MOUNT POCONO   FOG       64  64 100 E6        29.79F VSB 1/2          
HAZLETON       RAIN      68  64  88 SE3       29.80S                  
LEHIGHTON      RAIN      70  70 100 CALM      29.75S                  
WILKES BARRE   MOCLDY    70  67  90 CALM      29.74S                  

$$

SKY/WX - Weather  TMP - Temperature  DP - Dew Point  RH - Relative Humidity
WIND - Wind Direction/Speed PRES - Barometric Pressure VSB - Visibility
WCI - Wind Chill Index E13G22 Wind - East Wind 13 mph/Gusts of 22 mph